Wetbulb
71.69 72.25 71.90 71.55 71.12 70.83 69.19 70.63 67.08 61.81 64.09 68.46 69.83 71.57 71.47 69.86 72.09 67.48 65.48 65.94 65.40 64.98 64.66 65.08 65.43 66.06 66.85 68.20 70.06 71.51 72.61 72.48 71.66 73.27 73.88 73.79 74.35 75.09
72.18 71.60 71.52 71.44 71.59 70.63 71.39 71.07 69.60 66.81 64.40 69.30 70.28 71.13 73.93 72.67 70.01 65.67 65.60 65.22 64.80 64.15 63.90 63.50 64.39 64.51 65.07 65.67 66.51 67.50 68.11 69.02 69.75 70.29 70.52 71.09 72.93 73.63
72.31 72.15 71.57 72.15 71.89 72.39 70.90 71.26 70.98 70.63 66.64 67.77 71.97 71.94 69.80 72.36 69.29 66.00 64.69 62.47 63.36 63.75 63.04 62.49 62.28 62.37 62.80 62.80 63.24 63.72 64.80 65.80 67.27 68.60 69.75 70.20 70.52 71.44
71.52 71.12 70.78 74.04 71.44 70.76 71.46 70.50 70.95 70.06 68.83 67.28 69.51 70.41 70.98 72.13 69.93 67.57 65.55 63.62 62.19 62.93 62.08 61.19 60.68 60.03 59.86 59.78 59.74 59.92 60.16 61.08 62.38 63.70 65.25 66.35 67.27 68.06
72.79 71.72 71.65 71.50 70.74 70.33 70.86 70.68 71.07 71.63 70.31 68.69 67.49 70.68 70.04 71.90 71.33 69.12 65.11 62.62 62.68 61.80 60.98 60.50 59.87 59.25 58.33 57.46 57.02 56.15 56.00 57.19 58.11 59.45 60.85 62.85 64.29 65.35
72.88 72.07 72.31 72.52 71.42 71.51 71.62 71.07 71.60 71.14 70.65 69.85 69.00 68.71 69.43 70.44 70.00 68.06 64.63 66.03 62.12 62.68 61.49 59.77 59.60 59.49 58.59 58.13 57.23 56.26 55.06 54.88 55.48 56.34 57.39 58.71 59.96 60.96
72.66 72.64 72.35 72.19 71.18 70.52 71.35 71.45 70.48 69.56 68.96 68.26 67.97 67.59 67.57 67.47 67.27 68.10 68.71 67.59 64.87 62.22 58.85 58.80 57.62 54.71 53.98 57.06 57.69 57.06 55.83 55.34 54.90 54.59 54.59 54.86 55.48 56.03
70.67 71.17 72.63 72.38 71.74 69.07 69.07 68.82 69.08 68.73 68.30 67.90 67.03 66.49 66.76 66.25 65.59 66.62 67.02 67.18 66.52 64.29 59.80 60.62 58.84 54.10 52.34 52.39 56.51 55.92 55.66 55.34 54.87 54.26 53.67 53.33 53.71 53.93
70.08 70.34 71.65 71.19 66.22 68.29 69.30 66.48 66.24 67.56 67.49 66.92 66.89 66.23 66.76 66.30 67.14 66.44 67.32 67.03 66.42 67.95 63.88 56.60 55.43 55.26 53.74 54.26 55.01 54.95 54.63 54.59 54.26 53.79 53.26 52.25 51.64 51.39
64.73 64.49 66.98 61.76 57.84 61.92 66.19 68.17 67.54 64.20 61.97 63.75 63.19 61.91 60.35 60.86 63.32 66.38 65.82 67.10 67.99 67.41 66.30 58.81 54.81 53.51 53.03 53.11 55.50 54.06 54.10 53.86 53.46 52.58 51.75 50.46 49.69 49.71
58.30 57.75 58.24 56.36 57.05 60.38 65.10 66.39 63.31 60.98 61.03 60.28 59.71 58.80 58.44 58.38 59.10 62.54 57.88 61.77 63.20 62.52 58.30 63.45 58.61 52.04 50.14 49.62 51.56 54.44 53.77 52.25 52.09 51.97 51.55 50.34 49.13 48.86
58.74 56.73 57.17 55.18 54.80 56.33 60.81 62.70 62.78 62.53 62.95 62.90 62.36 58.31 57.67 57.15 57.70 56.48 56.77 57.42 58.85 58.36 56.04 60.32 60.58 58.00 52.72 51.75 49.46 50.52 50.32 51.36 50.83 50.69 50.84 50.24 48.65 47.66
61.02 58.14 56.43 54.55 53.35 53.81 55.94 58.75 59.41 61.51 62.71 60.39 58.80 57.76 56.71 55.65 55.22 54.08 55.76 56.48 56.75 55.96 55.99 58.41 59.16 58.68 58.16 53.14 50.73 48.65 48.84 48.33 48.04 48.98 49.54 48.75 48.07 47.70
57.22 56.19 54.34 52.07 51.62 53.40 56.53 55.73 57.74 59.89 60.12 58.57 57.30 57.19 56.13 55.42 54.91 54.30 54.63 55.98 57.19 56.61 56.16 57.37 56.31 55.25 54.20 53.93 55.22 50.99 50.36 49.04 49.17 47.32 46.83 47.94 48.60 49.74
56.33 54.49 52.34 51.85 52.91 54.87 55.28 56.10 57.35 58.66 58.62 57.40 56.56 56.22 56.26 55.73 56.11 54.20 54.66 53.85 53.75 54.56 56.17 56.51 56.03 55.48 55.14 52.81 52.83 51.51 51.67 51.19 52.27 50.81 50.48 49.02 49.58 47.05
55.47 54.31 54.30 55.48 54.75 54.97 55.18 54.90 56.44 57.17 56.60 55.77 54.34 55.14 54.98 55.21 55.17 55.30 54.45 53.32 51.21 52.76 54.02 54.95 54.97 54.63 53.46 53.02 52.07 50.23 51.04 49.10 51.67 51.40 52.01 52.81 53.00 50.64
53.66 53.96 55.12 55.12 54.45 53.79 54.04 54.43 54.48 53.58 53.94 53.72 53.29 54.47 53.29 53.23 52.11 53.78 51.70 51.09 50.87 52.47 51.68 52.37 52.48 50.89 48.70 49.58 50.30 50.23 49.53 50.20 50.86 50.87 50.45 49.73 51.44 51.77
52.03 51.32 51.24 51.96 51.96 51.84 51.13 51.42 51.10 52.48 52.91 51.73 50.01 49.71 48.91 47.86 47.38 48.60 48.82 48.42 47.41 48.57 49.60 50.84 50.29 49.86 49.52 49.26 51.29 50.27 49.63 50.79 50.99 50.31 49.88 48.81 49.12 49.36
50.52 49.70 49.67 50.09 49.85 50.34 50.37 50.00 49.53 47.43 47.46 47.05 47.01 46.44 46.57 47.65 46.27 45.76 46.31 46.85 46.13 46.50 47.16 47.36 48.12 47.04 44.93 45.08 45.86 48.74 47.96 48.11 48.06 48.40 48.29 48.35 47.25 47.12
47.35 50.37 50.27 50.06 50.01 49.62 49.39 48.30 47.64 47.07 47.66 47.36 47.78 48.68 46.49 45.71 45.85 46.18 46.44 44.76 45.33 44.43 45.96 45.55 43.77 44.22 44.16 43.60 43.81 46.79 46.79 45.70 45.22 44.84 44.28 44.20 45.81 50.83
47.31 50.01 50.75 51.32 50.87 51.72 50.64 49.67 49.07 48.43 48.72 48.71 48.51 47.46 46.93 45.77 44.23 43.98 43.49 43.35 42.91 41.17 43.35 42.42 41.84 48.43 45.24 45.70 42.08 43.44 43.81 46.71 46.05 41.79 41.56 40.58 40.03 41.00
50.64 51.28 52.27 52.86 51.59 51.37 51.09 50.07 49.53 47.43 47.28 48.27 48.32 46.51 46.37 45.20 44.56 44.10 43.14 42.12 41.70 41.60 42.97 43.93 45.18 44.49 43.80 42.34 40.99 41.55 43.91 45.08 47.44 49.50 50.10 47.34 41.72 38.57
49.83 50.00 50.54 51.72 53.24 53.36 52.54 53.14 50.18 49.81 51.41 48.64 47.29 47.35 46.15 44.40 44.15 43.78 43.08 42.29 42.14 41.58 42.09 41.36 43.45 42.84 41.52 41.53 42.16 40.36 40.61 42.55 43.48 43.50 45.27 50.32 51.05 51.15
MSLP
1019.37 1019.29 1018.97 1018.76 1018.93 1018.70 1018.61 1018.62 1018.77 1018.90 1018.50 1018.28 1018.49 1018.34 1018.34 1018.24 1018.57 1019.44 1018.87 1018.54 1018.75 1018.65 1018.77 1018.67 1018.62 1018.26 1017.95 1017.55 1017.08 1017.27 1017.34 1017.40 1017.58 1017.67 1017.84 1017.94 1018.04 1018.14
1019.27 1019.15 1018.90 1018.61 1018.56 1018.58 1018.44 1018.54 1018.50 1018.47 1018.53 1018.20 1018.12 1018.04 1017.73 1018.34 1018.82 1019.02 1018.66 1018.71 1018.94 1018.88 1018.87 1018.82 1018.73 1018.55 1018.32 1017.97 1017.77 1017.74 1017.86 1017.97 1018.05 1018.11 1018.14 1018.11 1018.05 1017.99
1018.94 1018.87 1018.85 1018.63 1018.41 1018.48 1018.41 1018.30 1018.32 1018.17 1018.45 1018.24 1017.90 1017.98 1017.91 1018.14 1018.84 1019.18 1019.11 1019.17 1019.16 1019.22 1019.23 1019.10 1018.83 1018.74 1018.65 1018.53 1018.37 1018.33 1018.36 1018.39 1018.29 1018.16 1018.11 1018.08 1018.03 1017.99
1018.54 1018.51 1018.54 1018.41 1018.40 1018.23 1018.29 1018.46 1018.28 1018.16 1018.42 1018.29 1017.99 1018.11 1017.89 1018.04 1018.84 1019.30 1018.94 1019.55 1019.76 1019.73 1019.71 1019.41 1019.21 1019.10 1018.93 1018.96 1019.07 1018.99 1018.86 1018.83 1018.82 1018.76 1018.73 1018.68 1018.55 1018.45
1018.06 1018.17 1018.31 1018.29 1018.20 1017.99 1017.86 1017.87 1017.93 1017.98 1018.13 1018.18 1018.03 1017.65 1017.75 1017.68 1018.76 1018.93 1019.33 1020.44 1020.33 1020.23 1019.62 1020.08 1019.92 1019.67 1019.54 1019.46 1019.46 1019.47 1019.43 1019.36 1019.22 1019.12 1018.98 1018.92 1018.93 1018.99
1017.70 1017.81 1017.80 1017.79 1017.77 1017.62 1017.45 1017.35 1017.45 1017.72 1017.93 1018.11 1017.97 1017.89 1017.97 1018.04 1018.02 1018.88 1019.86 1019.82 1020.93 1019.98 1019.96 1020.25 1020.20 1019.99 1019.89 1019.92 1020.03 1020.02 1019.91 1019.74 1019.72 1019.69 1019.65 1019.57 1019.55 1019.52
1017.47 1017.53 1017.46 1017.40 1017.36 1017.30 1017.32 1017.31 1017.42 1017.61 1017.75 1017.91 1018.06 1018.04 1018.10 1018.22 1018.27 1018.57 1019.01 1019.27 1019.70 1019.62 1020.17 1020.52 1020.39 1020.46 1020.43 1020.24 1020.25 1020.36 1020.53 1020.61 1020.52 1020.30 1020.26 1020.29 1020.26 1020.21
1017.39 1017.33 1017.43 1017.47 1017.32 1017.14 1017.18 1017.19 1017.30 1017.45 1017.58 1017.79 1017.90 1018.01 1017.99 1017.98 1018.04 1018.30 1018.65 1018.77 1019.03 1018.94 1019.51 1020.10 1020.27 1020.79 1020.83 1020.63 1020.44 1020.78 1021.03 1021.09 1021.10 1021.17 1021.17 1021.03 1021.06 1021.01
1017.28 1017.40 1017.44 1017.79 1017.81 1017.62 1017.39 1017.41 1017.25 1017.32 1017.45 1017.63 1017.87 1018.23 1018.14 1018.30 1018.26 1018.00 1017.92 1017.86 1017.83 1017.97 1018.64 1019.85 1020.42 1020.96 1021.00 1020.84 1020.78 1020.95 1021.16 1021.15 1021.30 1021.60 1021.73 1021.72 1021.72 1021.76
1017.86 1017.84 1017.81 1018.23 1018.06 1017.76 1017.48 1017.47 1017.80 1017.84 1017.82 1017.76 1017.90 1018.48 1018.60 1018.31 1017.99 1017.80 1017.87 1017.66 1017.55 1018.13 1018.30 1019.42 1020.13 1020.62 1020.87 1020.97 1021.02 1021.17 1021.44 1021.42 1021.44 1021.65 1021.82 1022.03 1022.13 1022.11
1018.30 1018.23 1018.23 1018.49 1018.19 1017.81 1017.76 1017.72 1018.18 1018.45 1018.21 1018.34 1018.43 1018.59 1018.71 1018.43 1017.97 1017.59 1018.06 1018.06 1018.30 1019.02 1019.38 1019.22 1019.78 1020.50 1020.88 1021.20 1021.43 1021.56 1021.80 1021.95 1021.84 1021.89 1022.13 1022.27 1022.34 1022.39
1018.60 1018.72 1018.77 1018.94 1018.66 1018.40 1018.31 1018.26 1018.66 1018.80 1018.65 1018.65 1018.98 1018.82 1018.90 1018.96 1018.75 1018.88 1018.91 1018.87 1018.97 1019.55 1019.93 1019.57 1019.73 1019.98 1020.77 1021.12 1021.53 1021.62 1021.76 1021.97 1022.16 1022.00 1021.95 1022.31 1022.56 1022.60
1018.81 1019.10 1019.32 1019.17 1019.05 1018.93 1018.89 1018.95 1019.03 1019.26 1019.03 1018.98 1019.27 1019.47 1019.58 1019.70 1019.67 1019.61 1019.44 1019.60 1019.70 1020.20 1020.53 1019.84 1020.24 1020.22 1020.71 1020.99 1021.43 1021.56 1021.54 1021.64 1021.55 1021.93 1021.97 1022.08 1022.12 1022.22
1019.25 1019.39 1019.50 1019.65 1019.54 1019.18 1019.19 1019.37 1019.20 1019.32 1019.44 1019.44 1019.63 1019.90 1020.08 1020.13 1020.19 1020.13 1020.01 1019.94 1020.08 1020.32 1020.50 1020.03 1020.34 1020.49 1020.80 1020.83 1020.65 1020.64 1021.08 1021.23 1021.21 1021.48 1022.10 1021.79 1021.84 1021.40
1019.72 1020.02 1020.16 1020.19 1020.05 1019.94 1020.09 1019.83 1019.58 1019.34 1019.55 1019.56 1020.09 1020.45 1020.57 1020.55 1020.53 1020.47 1020.26 1020.12 1019.93 1020.06 1020.26 1020.23 1020.03 1020.03 1020.01 1019.79 1019.63 1019.86 1020.22 1020.47 1020.66 1020.92 1021.51 1021.74 1021.63 1021.57
1020.21 1020.20 1020.23 1020.17 1020.35 1020.39 1020.39 1020.63 1020.61 1020.35 1019.94 1020.29 1020.34 1020.26 1020.41 1020.53 1020.63 1020.68 1020.53 1020.08 1020.30 1020.13 1020.04 1020.00 1020.10 1019.88 1019.91 1019.53 1019.11 1019.42 1019.56 1019.92 1020.34 1020.48 1020.69 1020.85 1021.05 1021.02
1020.66 1020.59 1020.58 1020.54 1020.75 1020.78 1020.96 1020.85 1020.85 1021.01 1021.00 1021.06 1021.29 1021.00 1020.67 1020.61 1020.63 1020.58 1020.51 1020.49 1020.54 1020.48 1020.08 1019.97 1019.94 1019.90 1020.07 1020.24 1019.80 1019.55 1019.91 1020.33 1020.36 1020.34 1020.31 1020.65 1020.66 1020.88
1021.13 1021.31 1021.17 1021.09 1021.09 1021.22 1021.41 1021.37 1021.39 1021.48 1021.49 1021.42 1021.35 1021.66 1021.60 1021.35 1021.15 1021.05 1021.04 1021.07 1021.02 1021.04 1020.76 1020.47 1020.24 1020.17 1020.77 1020.64 1020.16 1020.24 1020.16 1020.29 1020.64 1020.66 1020.68 1020.85 1020.72 1020.82
1021.31 1021.36 1021.32 1021.28 1021.30 1021.42 1021.59 1021.69 1021.63 1021.43 1021.47 1021.77 1021.68 1021.46 1021.67 1021.63 1021.55 1021.36 1021.39 1021.47 1021.34 1021.13 1021.22 1021.00 1021.04 1020.95 1021.23 1021.37 1021.02 1020.83 1020.74 1020.91 1021.01 1021.03 1020.99 1021.05 1021.23 1021.34
1021.47 1021.35 1021.32 1021.25 1021.24 1021.30 1021.42 1021.72 1021.68 1021.74 1021.67 1021.80 1021.86 1021.75 1021.66 1021.85 1021.99 1021.87 1021.76 1021.80 1021.82 1021.75 1021.69 1021.85 1021.66 1021.67 1021.76 1022.08 1021.89 1021.20 1021.12 1020.95 1021.22 1021.39 1021.33 1021.33 1021.25 1020.87
1021.26 1021.04 1020.79 1020.85 1020.89 1020.93 1021.16 1021.35 1021.43 1021.68 1021.62 1021.70 1021.81 1021.84 1021.85 1021.99 1022.14 1022.27 1022.14 1022.03 1022.03 1022.13 1022.43 1022.47 1022.23 1021.88 1021.96 1021.87 1022.05 1021.79 1021.47 1021.14 1021.18 1021.17 1021.25 1021.52 1021.36 1021.23
1020.65 1020.54 1020.51 1020.52 1020.63 1020.70 1021.03 1021.14 1021.26 1021.54 1021.64 1021.73 1021.82 1021.76 1021.96 1022.02 1022.30 1022.34 1022.35 1022.41 1022.31 1022.24 1022.40 1022.22 1022.08 1022.05 1022.00 1022.14 1022.43 1022.06 1021.86 1021.36 1020.87 1020.79 1021.01 1020.88 1020.91 1020.96
1020.52 1020.46 1020.28 1020.46 1020.46 1020.43 1020.64 1020.86 1021.17 1021.39 1021.34 1021.39 1021.54 1021.64 1021.86 1022.14 1022.07 1022.07 1022.12 1022.06 1022.14 1022.25 1022.17 1022.38 1022.19 1022.06 1022.12 1022.09 1021.93 1021.84 1021.71 1021.43 1020.99 1020.83 1020.57 1020.06 1020.20 1020.19
Wind_Speed
4 4 3 2 1 2 2 2 2 3 2 2 1 2 1 1 7 4 3 12 11 12 11 12 12 13 14 16 11 3 5 7 6 3 9 10 10 11
2 2 3 2 2 1 2 2 2 3 0 1 1 5 5 4 10 5 7 11 11 11 11 13 12 14 15 15 16 16 15 13 11 9 7 5 6 9
3 3 5 5 4 0 1 2 3 2 2 3 3 4 2 4 6 3 5 4 5 10 11 14 15 15 15 16 16 16 15 15 12 11 11 10 9 4
4 3 5 3 2 2 2 1 2 2 1 2 2 0 2 6 7 6 6 6 3 9 11 14 16 16 16 16 16 16 15 15 15 15 15 14 14 14
4 4 4 4 3 2 2 2 1 2 2 1 3 1 2 1 4 5 6 3 4 10 13 12 15 16 16 15 15 14 13 13 14 14 14 14 15 15
3 3 3 3 4 4 4 4 2 1 1 0 2 2 2 2 3 6 4 1 3 5 7 4 9 16 15 13 14 14 12 12 12 13 13 14 15 16
3 3 3 1 4 4 2 4 3 2 2 2 2 1 1 1 2 2 4 7 7 3 4 4 2 3 5 10 13 12 12 12 12 12 13 13 14 15
2 4 4 6 6 4 4 2 3 2 2 1 2 2 2 2 2 3 3 3 3 5 5 3 3 2 3 3 12 11 11 12 12 11 11 12 11 12
2 3 4 7 8 6 5 4 1 6 5 1 1 3 2 3 2 3 4 4 4 4 4 4 3 2 2 4 10 10 10 11 11 10 10 10 10 10
6 5 5 6 6 5 5 5 5 5 6 5 6 5 4 4 1 1 1 3 2 6 4 4 3 3 3 2 8 9 8 9 11 11 10 10 8 9
6 7 6 5 9 8 5 4 6 4 5 7 12 14 14 15 12 3 5 4 2 4 7 2 3 3 2 2 1 5 6 7 9 9 8 7 7 8
5 6 14 8 11 11 8 7 7 3 3 5 6 9 9 10 15 9 5 4 2 3 5 3 3 2 3 3 3 3 2 5 5 7 10 8 8 3
3 3 3 8 9 11 10 6 4 2 4 6 6 5 6 6 5 5 6 4 3 3 3 2 4 3 4 2 2 3 5 4 3 4 5 8 10 9
3 3 4 6 7 7 6 5 7 5 3 4 5 4 3 2 2 2 3 4 3 2 3 2 3 3 2 2 4 5 6 4 3 4 3 4 7 3
5 6 5 6 7 7 8 7 5 3 3 4 3 2 2 2 1 1 1 2 1 2 3 4 4 4 4 4 3 4 4 4 5 4 4 4 4 3
5 3 4 5 7 6 6 7 5 4 5 4 3 2 1 1 2 2 2 1 1 1 1 2 2 1 2 2 2 3 3 4 4 4 4 5 4 6
4 3 3 4 4 4 4 4 4 4 4 3 3 3 3 2 2 3 3 4 4 2 0 2 2 4 4 4 4 3 2 3 1 2 2 2 2 5
3 2 2 3 4 3 3 3 3 4 3 3 3 3 3 3 3 3 3 2 3 4 3 2 2 2 3 4 7 2 2 3 3 3 1 1 1 3
2 2 2 3 2 2 2 1 1 1 2 2 2 1 2 3 4 3 3 3 3 2 2 2 3 3 3 2 3 8 2 3 2 2 4 3 1 1
1 2 3 4 4 3 2 2 1 0 0 1 1 1 1 2 3 4 3 1 2 3 4 4 4 3 2 2 2 2 4 2 1 1 1 1 2 5
3 4 4 4 4 4 3 3 3 3 2 1 2 1 1 2 3 4 3 3 3 2 2 1 2 2 1 1 3 3 3 2 1 2 1 0 2 3
4 4 4 2 4 5 4 4 2 2 2 1 2 2 2 3 2 3 2 1 1 1 1 2 2 1 2 1 3 3 3 3 5 7 8 8 4 2
2 1 2 2 3 5 4 4 4 3 4 4 3 2 3 2 2 1 1 2 1 1 0 1 1 1 2 3 4 3 3 3 3 3 5 13 15 14
Wind_Direction
255 278 272 297 302 358 67 8 132 321 288 121 132 7 189 193 146 167 125 83 74 69 62 57 46 39 36 32 43 63 48 59 63 209 213 216 227 233
242 308 306 284 309 42 19 19 99 206 34 125 268 192 216 118 136 143 98 93 88 85 82 78 65 54 53 56 53 55 55 51 41 32 18 327 258 235
282 316 306 291 286 284 4 12 27 11 83 309 170 226 276 149 123 126 106 94 96 98 89 84 78 69 61 59 61 61 60 59 55 59 60 54 49 36
254 277 293 296 304 284 103 72 59 5 110 262 244 152 220 150 149 166 126 100 86 97 93 90 83 77 75 70 66 64 64 65 61 57 56 60 64 64
241 226 268 296 268 276 290 306 208 168 180 164 280 81 236 57 142 100 65 39 95 112 98 86 85 80 75 74 73 71 69 67 71 71 71 73 76 76
212 217 246 265 262 258 259 265 264 251 150 209 297 300 49 356 92 131 118 181 243 181 103 111 105 93 86 81 75 74 74 76 73 75 79 82 82 85
256 279 267 166 173 218 231 265 251 236 207 218 247 268 176 138 212 197 169 184 201 170 133 182 153 98 80 79 84 84 83 78 76 81 82 83 87 91
260 303 316 316 325 273 260 255 252 246 261 194 235 233 226 169 181 197 225 173 200 165 148 183 144 102 112 95 109 100 92 87 83 81 81 86 86 90
359 28 18 45 28 0 334 305 292 83 76 121 300 13 348 33 270 248 239 193 218 175 144 132 117 128 154 126 119 115 113 109 101 88 81 82 86 85
60 52 60 44 18 355 345 5 77 54 35 63 88 68 45 338 288 230 261 265 278 60 7 138 160 153 148 144 150 135 130 121 117 113 108 102 90 88
69 48 61 53 3 22 42 25 102 69 68 77 100 94 55 39 24 48 17 38 350 54 17 17 151 110 127 136 146 167 161 151 139 130 124 124 118 102
77 77 60 55 36 35 61 57 77 40 132 92 85 65 57 48 45 47 17 41 21 78 343 72 32 97 152 140 144 135 171 202 190 171 165 175 176 150
99 77 52 77 72 63 64 67 93 9 22 82 87 72 53 47 47 45 50 51 59 70 340 22 38 36 9 119 161 193 196 182 165 213 221 223 218 191
93 83 78 64 67 87 90 97 91 99 98 91 82 78 87 87 77 101 98 92 71 132 193 134 141 133 147 286 231 166 198 192 157 175 211 231 257 228
65 74 76 73 75 63 48 44 54 76 85 87 87 60 25 348 125 0 25 63 108 224 232 227 205 204 188 212 245 171 140 186 190 176 181 191 185 130
98 88 88 101 74 58 50 25 9 28 70 74 95 116 125 72 45 354 342 246 182 241 301 296 272 346 272 274 209 123 161 155 153 155 176 209 189 177
69 39 45 60 65 66 60 60 56 49 58 58 19 16 43 43 22 349 6 360 6 331 226 334 41 71 74 355 16 43 80 67 144 152 124 190 218 184
61 97 83 78 78 74 60 49 42 36 26 49 58 34 19 16 11 3 25 41 36 358 14 355 331 41 17 36 47 23 36 126 193 201 158 142 344 169
140 137 134 133 137 121 99 68 9 74 32 21 28 50 17 10 16 357 357 350 350 10 311 342 28 56 37 343 326 33 89 20 4 30 30 31 55 317
265 201 204 179 176 171 177 164 121 327 311 286 332 314 348 26 3 333 328 317 14 347 15 18 37 42 110 203 289 306 22 111 102 153 322 319 250 267
252 243 206 194 195 181 163 156 166 204 208 216 327 334 10 82 18 10 10 34 39 31 36 322 251 208 240 15 5 317 306 358 155 156 192 83 290 310
42 35 25 162 178 154 163 172 182 192 214 231 172 118 94 84 31 347 360 323 347 320 228 239 275 359 41 129 258 272 295 291 261 245 221 182 171 245
129 52 26 51 134 146 171 166 189 224 222 184 153 137 158 178 239 247 309 285 241 13 212 261 250 240 241 217 225 253 254 254 252 269 273 230 232 239